FW8074 Weather Reports


Display with metric or nautical units.
time (UTC)temp
F
wind
direction
speed
MPH
gust
MPH
rain 1hr
in
rain 24hr
in
rain mn
in
humidity
%
barometer
mb
20260503043054 47 0 0.0 0.0 0.00 0.29 0.00 98 1012.0
20260503041554 47 0 0.0 0.0 0.00 0.29 0.00 97 1012.1
20260503040058 47 0 0.0 0.0 0.00 0.29 0.00 97 1012.2
20260503034556 47 0 0.0 0.0 0.00 0.29 0.29 97 1011.7
20260503033055 47 0 0.0 0.0 0.00 0.29 0.29 96 1011.7
20260503031557 48 0 0.0 0.0 0.00 0.29 0.29 96 1011.8
20260503024555 49 0 0.0 0.0 0.00 0.29 0.29 96 1011.2
20260503023107 49 0 0.0 0.0 0.00 0.29 0.29 96 1011.0
20260503021605 50 0 0.0 0.0 0.00 0.29 0.29 96 1010.8
20260503020059 50 0 0.0 0.0 0.00 0.29 0.29 96 1010.8
20260503014554 50 0 0.0 0.0 0.00 0.29 0.29 96 1010.6
20260503013058 51 0 0.0 0.0 0.00 0.29 0.29 96 1010.7
20260503011617 51 0 0.0 1.0 0.00 0.29 0.29 96 1010.5
20260503010056 52 0 0.0 0.0 0.00 0.29 0.29 95 1010.3
20260503004555 52 0 0.0 0.0 0.00 0.29 0.29 94 1009.8
20260503003054 53 0 0.0 0.0 0.00 0.29 0.29 94 1009.7
20260503001555 54 0 0.0 0.0 0.00 0.29 0.29 93 1009.4
20260503000104 55 0 0.0 0.0 0.00 0.29 0.29 93 1009.2
20260502234604 55 0 0.0 0.0 0.00 0.29 0.29 93 1009.1
20260502233054 55 0 0.0 0.0 0.00 0.29 0.29 92 1009.2
20260502231600 56 0 0.0 0.0 0.00 0.29 0.29 92 1008.8
20260502230100 56 0 0.0 1.0 0.00 0.29 0.29 91 1008.9
20260502224554 56 0 0.0 2.0 0.00 0.29 0.29 90 1008.7
20260502223054 56 0 0.0 2.0 0.00 0.29 0.29 89 1008.8
20260502221613 56 0 0.0 4.0 0.00 0.29 0.29 88 1008.8
20260502220106 56 92 1.0 3.0 0.00 0.29 0.29 89 1008.8
20260502214555 56 0 0.0 3.0 0.00 0.29 0.29 89 1008.5
20260502213054 56 75 0.0 4.0 0.00 0.29 0.29 90 1008.5
20260502211556 56 181 0.0 4.0 0.00 0.29 0.29 90 1008.5
20260502210122 56 92 1.0 4.0 0.00 0.29 0.29 88 1008.5
20260502204558 56 100 1.0 4.0 0.00 0.29 0.29 90 1008.6
20260502203058 56 25 2.0 8.0 0.00 0.29 0.29 88 1008.7
20260502201556 56 346 1.0 7.0 0.00 0.29 0.29 89 1008.7
20260502200124 56 103 2.0 6.0 0.00 0.29 0.29 90 1008.7
20260502194555 56 86 1.0 8.0 0.00 0.29 0.29 89 1009.0
20260502193055 56 327 1.0 7.0 0.00 0.29 0.29 90 1008.8
20260502191603 55 275 1.0 8.0 0.00 0.29 0.29 90 1008.8
20260502190100 55 25 2.0 7.0 0.00 0.29 0.29 91 1008.8
20260502184555 55 105 0.0 7.0 0.00 0.29 0.29 93 1008.9
20260502183056 55 5 2.0 7.0 0.00 0.29 0.29 94 1009.0
20260502181555 54 133 1.0 4.0 0.00 0.29 0.29 95 1009.0
20260502170106 53 0 0.0 4.0 0.00 0.29 0.29 95 1009.3
20260502163058 53 124 1.0 7.0 0.01 0.29 0.29 96 1010.0
20260502161605 53 0 0.0 6.0 0.04 0.29 0.29 96 1010.0
20260502151612 52 0 1.0 5.0 0.04 0.25 0.25 96 1010.4
20260502130106 55 0 0.0 3.0 0.01 0.10 0.10 97 1009.1
20260502123054 55 136 0.0 3.0 0.00 0.09 0.09 97 1008.5
20260502121557 55 0 0.0 3.0 0.01 0.09 0.09 97 1008.0
20260502114557 55 0 0.0 2.0 0.02 0.09 0.09 97 1007.8
20260502113058 55 0 0.0 2.0 0.02 0.09 0.09 97 1007.9
20260502111557 55 0 0.0 0.0 0.02 0.08 0.08 97 1008.1
20260502104557 55 0 0.0 0.0 0.03 0.07 0.07 97 1008.5
20260502103106 55 0 0.0 0.0 0.03 0.07 0.07 96 1008.8
20260502101613 55 0 0.0 0.0 0.03 0.06 0.06 96 1008.5
20260502090114 56 0 0.0 0.0 0.02 0.02 0.02 95 1008.5
20260502070110 57 0 0.0 0.0 0.00 0.00 0.00 87 1008.0
20260502064618 57 0 0.0 0.0 0.00 0.00 0.00 86 1008.6
20260502063057 58 0 0.0 0.0 0.00 0.00 0.00 86 1008.6
20260502061553 58 0 0.0 2.0 0.00 0.00 0.00 86 1008.5
20260502060058 58 0 0.0 0.0 0.00 0.00 0.00 87 1008.8
20260502054600 58 0 0.0 1.0 0.00 0.00 0.00 87 1009.0
20260502053056 58 0 0.0 2.0 0.00 0.00 0.00 87 1009.0
20260502051556 58 0 0.0 1.0 0.00 0.00 0.00 87 1009.0
20260502050054 58 0 0.0 0.0 0.00 0.00 0.00 88 1009.0
20260502044559 58 0 0.0 0.0 0.00 0.00 0.00 89 1009.3